User: anonymous   Login
Location: Skalnate Pleso
(49.1889°N, 20.2450°E)
Time: 21:10:38
(UTC+02:00)
Language:

Iridium 45 - Orbit

View from above orbital plane
View from above orbital plane
View from above satellite
View from above satellite

Ground track
Ground track

The orbit data is extracted from the following two-line orbital elements,

1 25104U 97082A   15215.47004846  .00000011  00000-0 -31220-5 0  9991
2 25104 086.3952 213.0147 0003253 058.9356 301.2159 14.34215308922379
Epoch (UTC): 03 August 2015 11:16:52
Eccentricity: 0.0003253
inclination: 86.3952°
perigee height: 775 km
apogee height: 780 km
right ascension of ascending node: 213.0147°
argument of perigee: 58.9356°
revolutions per day: 14.34215308
mean anomaly at epoch: 301.2159°
orbit number at epoch: 92237

The dashed part of the orbit path shows where the satellite is in the earth's shadow,  

DLR